Simultaneous Nadir Overpasses (SNOs) Predictions

Prediction of SNOs between METOP-A and TERRA Satellite Orbit:

Table of predicted SNOs for the next 14.0 days since TLE Epoch: 4/15/2014
Index Date (METOP-A) Time (METOP-A) Lat,Lon (METOP-A) SZA (METOP-A ) Date (TERRA) Time (TERRA) Lat,Lon (TERRA) SZA (TERRA ) Distance(km) Time Diff (sec)
1 04/15/2014 09:21:29 -81.28, -93.20 105.69 04/15/2014 09:21:42 -81.28, -93.38 105.70 2.97 13
2 04/15/2014 10:12:09 81.28, 74.34 74.33 04/15/2014 10:11:08 81.29, 74.41 74.31 1.51 61
3 04/18/2014 04:05:21 81.23, 162.78 72.98 04/18/2014 04:06:35 81.13, 162.85 72.95 10.99 74
4 04/18/2014 04:55:55 -81.28, -27.11 106.69 04/18/2014 04:55:55 -81.28, -27.01 106.68 1.61 0
5 04/18/2014 05:46:34 81.29, 140.82 73.37 04/18/2014 05:45:21 81.29, 140.74 73.33 1.29 73
6 04/20/2014 23:39:38 81.28,-128.07 72.37 04/20/2014 23:40:39 81.28,-128.13 72.40 1.31 61
7 04/21/2014 00:30:19 -81.28, 39.32 107.64 04/21/2014 00:30:06 -81.28, 39.42 107.63 1.71 13
8 04/23/2014 19:14:03 81.28, -61.71 71.44 04/23/2014 19:14:50 81.28, -61.66 71.48 1.20 47
9 04/23/2014 20:04:43 -81.28, 106.07 108.52 04/23/2014 20:04:17 -81.28, 105.92 108.55 2.61 26
10 04/26/2014 14:48:28 81.27, 4.58 70.53 04/26/2014 14:49:01 81.27, 4.49 70.53 1.73 33




NCC Satellite Simultaneous Nadir Overpasses (SNOs) Prediction Service
